Fernandina Beach, FL

4:26 AM EDT on July 23, 2017 (GMT -0400)
Fernandina Beach

Weather History for KFHB - November, 2012

Change the Weather History Date:

Wednesday, November 21, 2012

  Actual Average (KNRB) Record (KNRB)
Temperature  
Mean Temperature 60 °F -  
Max Temperature 68 °F 69 °F 78 °F (1997)
Min Temperature 51 °F 55 °F 39 °F (2000)
Degree Days  
Heating Degree Days 6    
Growing Degree Days 10 (Base 50)    
Moisture  
Dew Point 54 °F    
Average Humidity 88    
Maximum Humidity 100    
Minimum Humidity 52    
Precipitation  
Precipitation 0.00 in - - ()
Sea Level Pressure  
Sea Level Pressure 30.06 in    
Wind  
Wind Speed 5 mph (North)    
Max Wind Speed 16 mph    
Max Gust Speed 22 mph    
Visibility 10 miles    
Events      
Averages and records for this station are not official NWS values.
T = Trace of Precipitation, MM = Missing Value Source: NWS Daily Summary

Daily Weather History Graph

Daily Weather History Graph

Search for Another Location

Airport or City:

Trip Planner

Search our weather history database for the weather conditions in past years. The results will help you decide how hot, cold, wet, or windy it might be!

Date:

Astronomy

Nov. 21, 2012 Rise Set
Actual Time 6:57 AM EST 5:25 PM EST
Civil Twilight 6:31 AM EST 5:51 PM EST
Nautical Twilight 6:02 AM EST 6:21 PM EST
Astronomical Twilight 5:33 AM EST 6:49 PM EST
Moon 1:18 PM EST (11/21) 12:40 AM EST (11/21)
Length of Visible Light 11h 20m
Length of Day
10h 28m
First Quarter, 61% of the Moon is Illuminated
Nov 21
First Quarter
Nov 28
Full
Dec 6
Last Quarter
Dec 13
New
Dec 20
First Quarter

Hourly Weather History & Observations

Time (EST) Temp. Dew Point Humidity Pressure Visibility Wind Dir Wind Speed Gust Speed Precip Events Conditions
12:15 AM 55.4 °F 55.4 °F 100% 30.05 in 10.0 mi Calm Calm - N/A   Clear
12:35 AM 53.6 °F 53.6 °F 100% 30.05 in 10.0 mi Calm Calm - N/A   Scattered Clouds
12:55 AM 55.4 °F 55.4 °F 100% 30.04 in 10.0 mi Calm Calm - N/A   Clear
1:15 AM 55.4 °F 55.4 °F 100% 30.04 in 10.0 mi NW 3.5 mph - N/A   Clear
1:35 AM 55.4 °F 55.4 °F 100% 30.04 in 10.0 mi NNW 3.5 mph - N/A   Clear
1:55 AM 55.4 °F 55.4 °F 100% 30.03 in 10.0 mi NNW 5.8 mph - N/A   Scattered Clouds
2:15 AM 55.4 °F 55.4 °F 100% 30.03 in 10.0 mi NNW 5.8 mph - N/A   Scattered Clouds
2:35 AM 57.2 °F 57.2 °F 100% 30.03 in 10.0 mi NW 4.6 mph - N/A   Mostly Cloudy
2:55 AM 55.4 °F 55.4 °F 100% 30.03 in 10.0 mi NW 5.8 mph - N/A   Scattered Clouds
3:15 AM 55.4 °F 55.4 °F 100% 30.03 in 10.0 mi NNW 4.6 mph - N/A   Scattered Clouds
3:35 AM 55.4 °F 55.4 °F 100% 30.03 in 10.0 mi NNW 4.6 mph - N/A   Scattered Clouds
3:55 AM 55.4 °F 55.4 °F 100% 30.03 in 10.0 mi NNW 4.6 mph - N/A   Scattered Clouds
4:15 AM 55.4 °F 55.4 °F 100% 30.03 in 10.0 mi NNW 4.6 mph - N/A   Clear
4:35 AM 57.2 °F 57.2 °F 100% 30.03 in 10.0 mi North 3.5 mph - N/A   Clear
4:55 AM 57.2 °F 57.2 °F 100% 30.04 in 10.0 mi NNW 4.6 mph - N/A   Clear
5:15 AM 55.4 °F 55.4 °F 100% 30.04 in 10.0 mi NNW 3.5 mph - N/A   Clear
5:35 AM 53.6 °F 53.6 °F 100% 30.05 in 10.0 mi NNW 3.5 mph - N/A   Clear
5:55 AM 53.6 °F 53.6 °F 100% 30.05 in 10.0 mi NNW 3.5 mph - N/A   Clear
6:15 AM 53.6 °F 53.6 °F 100% 30.05 in 10.0 mi NW 4.6 mph - N/A   Clear
6:35 AM 53.6 °F 53.6 °F 100% 30.06 in 10.0 mi NNW 3.5 mph - N/A   Clear
6:55 AM 51.8 °F 51.8 °F 100% 30.06 in 10.0 mi NW 3.5 mph - N/A   Clear
7:15 AM 51.8 °F 51.8 °F 100% 30.07 in 10.0 mi NNW 4.6 mph - N/A   Clear
7:35 AM 53.6 °F 53.6 °F 100% 30.07 in 10.0 mi NNW 5.8 mph - N/A   Clear
7:55 AM 55.4 °F 55.4 °F 100% 30.08 in 10.0 mi NNW 5.8 mph - N/A   Clear
8:15 AM 55.4 °F 55.4 °F 100% 30.08 in 10.0 mi NNW 4.6 mph - N/A   Clear
8:35 AM 59.0 °F 55.4 °F 88% 30.08 in 10.0 mi North 5.8 mph - N/A   Clear
8:55 AM 59.0 °F 55.4 °F 88% 30.08 in 10.0 mi North 4.6 mph - N/A   Clear
9:15 AM 59.0 °F 55.4 °F 88% 30.09 in 10.0 mi NNW 5.8 mph - N/A   Clear
9:35 AM 60.8 °F 57.2 °F 88% 30.10 in 10.0 mi North 8.1 mph - N/A   Clear
9:55 AM 62.6 °F 55.4 °F 77% 30.10 in 10.0 mi North 10.4 mph - N/A   Clear
10:15 AM 62.6 °F 53.6 °F 72% 30.10 in 10.0 mi North 8.1 mph - N/A   Clear
10:35 AM 64.4 °F 53.6 °F 68% 30.09 in 10.0 mi North 13.8 mph - N/A   Clear
10:55 AM 64.4 °F 51.8 °F 64% 30.09 in 10.0 mi North 9.2 mph 18.4 mph N/A   Clear
11:15 AM 64.4 °F 51.8 °F 64% 30.09 in 10.0 mi NNE 11.5 mph 18.4 mph N/A   Clear
11:35 AM 64.4 °F 51.8 °F 64% 30.08 in 10.0 mi North 11.5 mph 19.6 mph N/A   Clear
11:55 AM 66.2 °F 51.8 °F 60% 30.08 in 10.0 mi NNE 9.2 mph 18.4 mph N/A   Clear
12:15 PM 66.2 °F 50.0 °F 56% 30.08 in 10.0 mi NNE 12.7 mph - N/A   Clear
12:35 PM 66.2 °F 50.0 °F 56% 30.07 in 10.0 mi North 12.7 mph 16.1 mph N/A   Clear
12:55 PM 68.0 °F 50.0 °F 52% 30.06 in 10.0 mi NNE 16.1 mph 19.6 mph N/A   Clear
1:15 PM 66.2 °F 48.2 °F 52% 30.06 in 10.0 mi NNE 10.4 mph 18.4 mph N/A   Clear
1:35 PM 64.4 °F 48.2 °F 56% 30.06 in 10.0 mi NNE 16.1 mph 21.9 mph N/A   Clear
1:55 PM 64.4 °F 51.8 °F 64% 30.05 in 10.0 mi NNE 12.7 mph 17.3 mph N/A   Clear
2:15 PM 64.4 °F 51.8 °F 64% 30.05 in 10.0 mi NNE 12.7 mph 16.1 mph N/A   Clear
2:35 PM 64.4 °F 53.6 °F 68% 30.05 in 10.0 mi ENE 10.4 mph - N/A   Clear
2:55 PM 64.4 °F 53.6 °F 68% 30.04 in 10.0 mi NE 9.2 mph - N/A   Clear
3:15 PM 64.4 °F 55.4 °F 73% 30.04 in 10.0 mi NE 10.4 mph - N/A   Clear
3:35 PM 62.6 °F 53.6 °F 72% 30.05 in 10.0 mi NE 10.4 mph - N/A   Clear
3:55 PM 62.6 °F 53.6 °F 72% 30.05 in 10.0 mi ENE 6.9 mph - N/A   Clear
4:15 PM 62.6 °F 55.4 °F 77% 30.05 in 10.0 mi NNE 5.8 mph - N/A   Clear
4:35 PM 62.6 °F 55.4 °F 77% 30.05 in 10.0 mi NE 4.6 mph - N/A   Clear
4:55 PM 60.8 °F 55.4 °F 82% 30.05 in 10.0 mi NE 4.6 mph - N/A   Clear
5:15 PM 59.0 °F 55.4 °F 88% 30.05 in 10.0 mi Calm Calm - N/A   Clear
5:35 PM 59.0 °F 55.4 °F 88% 30.05 in 10.0 mi Calm Calm - N/A   Clear
5:55 PM 57.2 °F 55.4 °F 94% 30.05 in 10.0 mi Calm Calm - N/A   Clear
6:15 PM 55.4 °F 55.4 °F 100% 30.05 in 10.0 mi Calm Calm - N/A   Clear
6:35 PM 53.6 °F 53.6 °F 100% 30.05 in 10.0 mi Calm Calm - N/A   Clear
6:55 PM 53.6 °F 53.6 °F 100% 30.06 in 10.0 mi Calm Calm - N/A   Clear
7:15 PM 53.6 °F 53.6 °F 100% 30.07 in 10.0 mi Calm Calm - N/A   Clear
7:35 PM 53.6 °F 53.6 °F 100% 30.07 in 10.0 mi Calm Calm - N/A   Clear
7:55 PM 51.8 °F 51.8 °F 100% 30.07 in 10.0 mi NW 3.5 mph - N/A   Clear
8:15 PM 51.8 °F 51.8 °F 100% 30.06 in 10.0 mi North 3.5 mph - N/A   Clear
8:35 PM 53.6 °F 53.6 °F 100% 30.07 in 10.0 mi NNW 4.6 mph - N/A   Clear
8:55 PM 53.6 °F 53.6 °F 100% 30.07 in 10.0 mi NNW 3.5 mph - N/A   Clear
9:15 PM 53.6 °F 53.6 °F 100% 30.08 in 10.0 mi NW 3.5 mph - N/A   Clear
9:35 PM 53.6 °F 53.6 °F 100% 30.10 in 10.0 mi NW 4.6 mph - N/A   Clear
9:55 PM 53.6 °F 51.8 °F 94% 30.10 in 10.0 mi NNW 4.6 mph - N/A   Clear
10:15 PM 53.6 °F 51.8 °F 94% 30.10 in 10.0 mi NNW 4.6 mph - N/A   Clear
10:35 PM 51.8 °F 51.8 °F 100% 30.10 in 10.0 mi NW 3.5 mph - N/A   Clear
10:55 PM 53.6 °F 51.8 °F 94% 30.10 in 10.0 mi NW 4.6 mph - N/A   Clear
11:15 PM 53.6 °F 51.8 °F 94% 30.11 in 10.0 mi NNW 3.5 mph - N/A   Clear
11:35 PM 51.8 °F 51.8 °F 100% 30.10 in 10.0 mi NNW 3.5 mph - N/A   Clear
11:55 PM 51.8 °F 50.0 °F 94% 30.10 in 10.0 mi NW 4.6 mph - N/A   Clear